Content
SEND FEEDBACK

Daily
Averages
Monthly
Summary
United States of America

TAFT, CALIFORNIA


Home > North America > United States > California
Elevation: 659 feet     Latitude: 35 05N     Longitude: 119 23W

WEATHER
 
SELECT A DAY
Number of Records: 182,040;   Date Range: 1/1/95 - 9/18/14
 
SHARE

PRINT THIS DATA

[ ← Previous Day ]
WEATHER ALMANAC - FEBRUARY 18, 2013
[ Next Day → ]
[ °C ]   °F
Weather ElementAverageHighLow
Temperature54.4 °F70 °F (2:54 pm)43 °F (3:54 am)
Dewpoint37.8 °F41 °F (4:54 pm)33.1 °F (3:54 pm)
Humidity56.1 %73 % (11:54 pm)26 % (3:54 pm)
Barometer29.95 in30.02 in (8:54 am)29.87 in (3:54 pm)
Wind Speed6.1 mph16.1 mph (4:54 pm)
Weather ElementAverage
Visibility9.2 mi
Wind DirectionSSE (164.8 °)

Weather ElementTotal
Precipitation---
Heating Degree Days8.5 (Base 65)
Growing Degree Days6.5 (Base 50)
Averaged from 23 records on February 18, 2013
WEATHER CONDITIONS BREAKOUT
WIND DIRECTION BREAKOUT
WEATHER BY HOUR - FEBRUARY 18, 2013
[ °C ]   °F
Local TimeTemperatureDewpointHumidityBarometerVisibilityWind DirectionWind SpeedGust SpeedPrecipitationEventsConditions
1:54 AM46.0 °F37.0 °F71 %30.00 in8.0 miESE (110°)3.5 mphClear
2:54 AM45.0 °F36.0 °F71 %29.99 in8.0 miCalmClear
3:54 AM43.0 °F34.0 °F71 %29.98 in8.0 miCalmClear
4:54 AM48.0 °F37.0 °F66 %29.99 in9.0 miESE (110°)4.6 mphClear
5:54 AM46.9 °F37.0 °F68 %29.99 in8.0 miSE (130°)3.5 mphClear
6:54 AM44.1 °F35.1 °F71 %30.00 in6.0 miESE (120°)3.5 mphHaze
7:54 AM48.0 °F37.0 °F66 %30.01 in8.0 miSE (140°)3.5 mphClear
8:54 AM54.0 °F37.9 °F55 %30.02 in9.0 miSE (140°)5.8 mphClear
9:54 AM57.9 °F39.9 °F51 %30.00 in10.0 miSE (140°)4.6 mphClear
10:54 AM60.1 °F39.9 °F47 %30.00 in10.0 miCalmClear
11:54 AM64.0 °F39.9 °F41 %29.97 in9.0 miVariable4.6 mphClear
12:54 PM66.0 °F39.0 °F37 %29.92 in9.0 miSSW (200°)4.6 mphClear
1:54 PM68.0 °F37.0 °F32 %29.91 in9.0 miNW (310°)6.9 mphClear
2:54 PM70.0 °F35.1 °F28 %29.89 in10.0 miCalmClear
3:54 PM69.1 °F33.1 °F26 %29.87 in10.0 miNW (310°)11.5 mphClear
4:54 PM63.0 °F41.0 °F45 %29.87 in10.0 miNNW (330°)16.1 mphClear
5:54 PM57.0 °F39.9 °F53 %29.88 in10.0 miNNW (330°)13.8 mphClear
6:54 PM54.0 °F39.9 °F59 %29.91 in10.0 miNorth (360°)10.4 mphClear
7:54 PM52.0 °F39.0 °F61 %29.92 in10.0 miNorth (10°)9.2 mphClear
8:54 PM51.1 °F39.0 °F63 %29.95 in10.0 miNorth (10°)9.2 mphClear
9:54 PM48.9 °F39.0 °F69 %29.96 in10.0 miNorth (350°)6.9 mphClear
10:54 PM50.0 °F39.0 °F66 %29.96 in10.0 miNNW (340°)10.4 mphClear
11:54 PM46.0 °F37.9 °F73 %29.95 in10.0 miNorth (350°)6.9 mphClear
Hourly data recorded from KBFL, located miles away from Taft, California







STORIES FROM OUR PARTNERS